Rochelle, IL

12:59 PM CST on December 14, 2019 (GMT -0600)
Rochelle

Weather History for KRPJ - November, 2019

Change the Weather History Date:

Sunday, November 17, 2019

  Actual Average (KRFD) Record (KRFD)
Temperature  
Mean Temperature 32 °F -  
Max Temperature 36 °F 48 °F 73 °F (1941)
Min Temperature 27 °F 30 °F 0 °F (1959)
Degree Days  
Heating Degree Days 34    
Moisture  
Dew Point 31 °F    
Average Humidity 94    
Maximum Humidity 100    
Minimum Humidity 83    
Precipitation  
Precipitation 0.05 in - - ()
Sea Level Pressure  
Sea Level Pressure 29.97 in    
Wind  
Wind Speed 5 mph ()    
Max Wind Speed 9 mph    
Max Gust Speed -    
Visibility 5.5 miles    
Events Rain    
Averages and records for this station are not official NWS values.
T = Trace of Precipitation, MM = Missing Value Source: Averaged Metar Reports

Daily Weather History Graph

Daily Weather History Graph

Search for Another Location

Airport or City:

Astronomy

Nov. 17, 2019 Rise Set
Actual Time 6:48 AM CST 4:33 PM CST
Civil Twilight 6:18 AM CST 5:04 PM CST
Nautical Twilight 5:44 AM CST 5:37 PM CST
Astronomical Twilight 5:11 AM CST 6:10 PM CST
Moon 9:09 PM CST (11/17) 11:35 AM CST (11/17)
Length of Visible Light 10h 45m
Length of Day
9h 45m
Waning Gibbous, 73% of the Moon is Illuminated
Nov 17
Waning Gibbous
Nov 19
Last Quarter
Nov 26
New
Dec 4
First Quarter
Dec 11
Full

Hourly Weather History & Observations

Time (CST) Temp. Windchill Dew Point Humidity Pressure Visibility Wind Dir Wind Speed Gust Speed Precip Events Conditions
12:15 AM 30.2 °F 23.4 °F 28.0 °F 92% 30.18 in 10.0 mi SE 6.9 mph - N/A   Clear
12:35 AM 30.2 °F 24.3 °F 27.9 °F 91% 30.17 in 10.0 mi SSE 5.8 mph - N/A   Clear
12:55 AM 29.8 °F 23.0 °F 27.7 °F 92% 30.17 in 10.0 mi SSE 6.9 mph - N/A   Clear
1:15 AM 28.8 °F 25.0 °F 27.3 °F 94% 30.17 in 7.0 mi SSE 3.5 mph - N/A   Clear
1:35 AM 28.2 °F 24.4 °F 27.1 °F 96% 30.16 in 7.0 mi SE 3.5 mph - N/A   Clear
1:55 AM 28.9 °F 22.8 °F 27.5 °F 94% 30.16 in 7.0 mi SSE 5.8 mph - N/A   Clear
2:15 AM 29.1 °F 24.1 °F 27.5 °F 94% 30.14 in 7.0 mi SE 4.6 mph - N/A   Clear
2:35 AM 29.3 °F 23.2 °F 27.5 °F 93% 30.14 in 10.0 mi SSE 5.8 mph - N/A   Clear
2:55 AM 29.1 °F 23.0 °F 27.5 °F 94% 30.13 in 10.0 mi SSE 5.8 mph - N/A   Clear
3:15 AM 28.8 °F 23.7 °F 27.3 °F 94% 30.13 in 7.0 mi SSE 4.6 mph - N/A   Clear
3:35 AM 28.8 °F 23.7 °F 27.5 °F 95% 30.12 in 7.0 mi SSE 4.6 mph - N/A   Clear
3:55 AM 29.1 °F 22.1 °F 27.5 °F 94% 30.10 in 10.0 mi SE 6.9 mph - N/A   Clear
4:15 AM 28.4 °F 23.3 °F 27.1 °F 95% 30.10 in 7.0 mi SE 4.6 mph - N/A   Clear
4:35 AM 28.2 °F 22.0 °F 27.0 °F 95% 30.09 in 10.0 mi SE 5.8 mph - N/A   Clear
4:55 AM 28.4 °F 23.3 °F 27.1 °F 95% 30.09 in 7.0 mi SE 4.6 mph - N/A   Clear
5:15 AM 28.0 °F 21.7 °F 26.6 °F 94% 30.09 in 7.0 mi SSE 5.8 mph - N/A   Clear
5:35 AM 27.3 °F 20.9 °F 26.4 °F 96% 30.08 in 7.0 mi SE 5.8 mph - N/A   Clear
5:55 AM 27.0 °F 20.5 °F 26.2 °F 97% 30.07 in 7.0 mi SE 5.8 mph - N/A   Clear
6:15 AM 27.1 °F 21.8 °F 26.4 °F 97% 30.07 in 7.0 mi SE 4.6 mph - N/A   Clear
6:35 AM 27.5 °F 23.6 °F 26.6 °F 96% 30.06 in 7.0 mi SSE 3.5 mph - N/A   Clear
6:55 AM 28.2 °F 21.0 °F 27.1 °F 96% 30.05 in 7.0 mi SE 6.9 mph - N/A   Clear
7:15 AM 28.9 °F 21.9 °F 27.7 °F 95% 30.04 in 5.0 mi SE 6.9 mph - N/A   Clear
7:35 AM 29.8 °F 22.2 °F 28.0 °F 93% 30.03 in 7.0 mi SSE 8.1 mph - N/A   Scattered Clouds
7:55 AM 30.4 °F 22.2 °F 28.4 °F 92% 30.03 in 7.0 mi SSE 9.2 mph - N/A   Mostly Cloudy
8:15 AM 30.6 °F 23.8 °F 28.4 °F 92% 30.03 in 7.0 mi South 6.9 mph - N/A   Scattered Clouds
8:35 AM 31.1 °F 23.7 °F 28.9 °F 92% 30.03 in 7.0 mi SSE 8.1 mph - N/A   Scattered Clouds
8:55 AM 32.0 °F 25.6 °F 29.3 °F 90% 30.02 in 7.0 mi SSE 6.9 mph - N/A   Scattered Clouds
9:15 AM 32.2 °F 24.4 °F 29.8 °F 91% 30.01 in 7.0 mi SSE 9.2 mph - N/A   Mostly Cloudy
9:35 AM 32.9 °F 25.9 °F 29.8 °F 88% 30.00 in 7.0 mi SSE 8.1 mph - N/A   Overcast
9:55 AM 32.9 °F 26.7 °F 30.0 °F 89% 29.99 in 7.0 mi SSE 6.9 mph - N/A   Overcast
10:15 AM 33.1 °F 26.1 °F 30.2 °F 89% 29.99 in 7.0 mi SSE 8.1 mph - N/A   Overcast
10:35 AM 33.3 °F 27.1 °F 30.6 °F 90% 29.98 in 7.0 mi SSE 6.9 mph - N/A   Overcast
10:55 AM 33.8 °F 27.0 °F 30.6 °F 88% 29.98 in 7.0 mi South 8.1 mph - N/A   Overcast
11:15 AM 33.8 °F 27.7 °F 30.6 °F 88% 29.97 in 7.0 mi SSE 6.9 mph - N/A   Overcast
11:35 AM 34.0 °F 28.0 °F 30.9 °F 89% 29.96 in 7.0 mi SSE 6.9 mph - N/A   Overcast
11:55 AM 34.2 °F 29.0 °F 31.1 °F 89% 29.94 in 7.0 mi SSE 5.8 mph - N/A   Overcast
12:15 PM 34.7 °F 28.8 °F 31.1 °F 87% 29.93 in 7.0 mi SSE 6.9 mph - N/A   Overcast
12:35 PM 35.2 °F 29.5 °F 31.6 °F 87% 29.92 in 7.0 mi SSE 6.9 mph - N/A   Overcast
12:55 PM 35.6 °F 30.7 °F 31.8 °F 86% 29.92 in 7.0 mi SSE 5.8 mph - N/A   Overcast
1:15 PM 36.0 °F 31.1 °F 31.8 °F 85% 29.90 in 7.0 mi South 5.8 mph - N/A   Overcast
1:35 PM 36.3 °F 32.5 °F 32.0 °F 84% 29.90 in 7.0 mi South 4.6 mph - N/A   Overcast
1:55 PM 36.7 °F 34.1 °F 32.0 °F 83% 29.89 in 7.0 mi South 3.5 mph - N/A   Overcast
2:15 PM 36.7 °F 32.0 °F 32.2 °F 84% 29.87 in 7.0 mi SE 5.8 mph - N/A   Overcast
2:35 PM 36.5 °F 33.9 °F 32.9 °F 87% 29.87 in 5.0 mi SE 3.5 mph - N/A Rain Light Rain
2:55 PM 36.5 °F 31.8 °F 33.8 °F 90% 29.88 in 5.0 mi South 5.8 mph - N/A   Light Drizzle
3:15 PM 36.5 °F 31.8 °F 34.0 °F 91% 29.88 in 5.0 mi South 5.8 mph - N/A   Drizzle
3:35 PM 36.1 °F - 34.3 °F 93% 29.87 in 4.0 mi Calm Calm - N/A Rain Light Rain
3:55 PM 36.0 °F 33.3 °F 34.7 °F 95% 29.86 in 3.0 mi SSE 3.5 mph - N/A Rain Rain
4:15 PM 35.8 °F - 35.1 °F 97% 29.86 in 3.0 mi Calm Calm - N/A   Drizzle
4:35 PM 35.2 °F - 34.7 °F 98% 29.86 in 3.0 mi Calm Calm - N/A   Drizzle
4:55 PM 34.7 °F - 34.7 °F 100% 29.86 in 2.5 mi Calm Calm - 0.01 in Rain Rain
5:15 PM 34.7 °F - 34.7 °F 100% 29.87 in 2.0 mi Calm Calm - N/A   Drizzle
5:35 PM 34.5 °F - 34.5 °F 100% 29.87 in 2.5 mi Calm Calm - 0.01 in   Drizzle
5:55 PM 34.3 °F - 34.3 °F 100% 29.87 in 2.0 mi Calm Calm - 0.02 in Rain Light Rain
6:15 PM 34.3 °F - 34.3 °F 100% 29.86 in 1.8 mi Calm Calm - N/A Rain Light Rain
6:35 PM 34.3 °F - 34.3 °F 100% 29.86 in 1.5 mi Calm Calm - 0.01 in   Drizzle
6:55 PM 34.3 °F - 34.3 °F 100% 29.87 in 1.5 mi Calm Calm - 0.01 in   Drizzle
7:15 PM 34.2 °F - 34.2 °F 100% 29.87 in 1.2 mi Calm Calm - N/A   Drizzle
7:35 PM 34.5 °F - 34.5 °F 100% 29.87 in 1.5 mi Calm Calm - N/A   Drizzle
7:55 PM 34.2 °F 31.2 °F 34.2 °F 100% 29.86 in 1.0 mi SW 3.5 mph - 0.01 in   Light Drizzle
8:15 PM 34.2 °F 31.2 °F 34.2 °F 100% 29.86 in 1.2 mi West 3.5 mph - N/A   Overcast
8:35 PM 34.7 °F 31.8 °F 34.7 °F 100% 29.85 in 1.8 mi West 3.5 mph - N/A   Overcast
8:55 PM 34.3 °F 31.4 °F 34.3 °F 100% 29.85 in 1.8 mi West 3.5 mph - N/A   Overcast
9:15 PM 34.2 °F 31.2 °F 34.2 °F 100% 29.85 in 2.0 mi WNW 3.5 mph - N/A   Overcast
9:35 PM 34.2 °F 31.2 °F 34.2 °F 100% 29.85 in 3.0 mi WNW 3.5 mph - N/A   Overcast
9:55 PM 33.8 °F - 33.8 °F 100% 29.85 in 2.5 mi Calm Calm - N/A   Overcast
10:15 PM 33.8 °F 30.8 °F 33.8 °F 100% 29.84 in 3.0 mi WNW 3.5 mph - N/A   Overcast
10:35 PM 33.3 °F 30.2 °F 33.3 °F 100% 29.84 in 2.5 mi West 3.5 mph - N/A   Overcast
11:15 PM 33.1 °F 28.7 °F 33.1 °F 100% 29.83 in 2.0 mi West 4.6 mph - N/A   Overcast
11:35 PM 32.9 °F 29.8 °F 32.9 °F 100% 29.81 in 2.0 mi West 3.5 mph - N/A   Overcast
11:55 PM 32.9 °F 28.5 °F 32.9 °F 100% 29.82 in 2.0 mi West 4.6 mph - N/A   Overcast